Regional Weather Roundup
Issued by NWS

Home | Current Version | Previous Version | Text Only | Print | Product List | Glossary On
Versions: 1 2 3 4 5 6 7 8 9 10 11 12 13 14 15 16 17 18 19 20 21 22 23 24 25 26 27 28 29 30 31 32 33 34 35 36 37 38 39 40 41 42 43 44 45 46 47 48 49 50
000
ASUS43 KMPX 241810
RWRMN
WEATHER ROUNDUP FOR MINNESOTA
NATIONAL WEATHER SERVICE TWIN CITIES/CHANHASSEN MN
100 PM CDT SUN MAY 24 2015


NOTE: "FAIR" INDICATES FEW OR NO CLOUDS BELOW 12,000 FEET WITH NO
SIGNIFICANT WEATHER AND/OR OBSTRUCTIONS TO VISIBILITY. N/A MEANS
CURRENT SKY AND/OR WEATHER CONDITIONS ARE NOT AVAILABLE.

MNZ060>063-068>070-241900-
   Twin Cities Metro

CITY           SKY/WX    TMP DP  RH WIND       PRES   REMARKS
TWIN CITIES    LGT RAIN  63  57  81 SE16      30.00F
6HR MIN TEMP:  62; 6HR MAX TEMP:  64; 6HR PCP:  0.05;

ST PAUL        LGT RAIN  63  57  81 SE13      30.01F
CRYSTAL        LGT RAIN  64  57  78 E7        29.99F
BLAINE         DRIZZLE   64  61  88 E7        30.01F
LAKEVILLE      LGT RAIN  59  55  88 E12       29.99F
EDEN PRAIRIE   CLOUDY    63  57  81 E10       29.98F
6HR MIN TEMP:  61; 6HR MAX TEMP:  64; 6HR PCP:  0.06;

SOUTH ST PAUL  CLOUDY    63  56  77 SE9       30.00F
LAKE ELMO      DRIZZLE   63  55  77 SE13      30.02F
$$
MNZ001>005-007-008-013>017-022>024-027-028-241900-
   Northwest Minnesota

CITY           SKY/WX    TMP DP  RH WIND       PRES   REMARKS
BEMIDJI        CLOUDY    69  46  43 E8        30.04F
HALLOCK        SUNNY     75  39  27 CALM      30.00F
ROSEAU         SUNNY     75  43  31 CALM      30.01F
WARROAD        SUNNY     75  48  38 E9        30.01F
THIEF RVR FALL PTSUNNY   72  45  37 SE6       30.02F
CROOKSTON      PTSUNNY   73  46  38 E6        30.01F
FOSSTON        CLOUDY    73  48  40 CALM      30.03F
DETROIT LAKES  CLOUDY    64  48  55 E9G17     30.02F
MOORHEAD       CLOUDY    70  50  49 E13       30.00S
PARK RAPIDS    CLOUDY    68  46  45 E12       30.02F
MAHNOMEN       CLOUDY    67  46  46 E6        30.02S
$$
MNZ006-009>011-018-025>026-241900-
   North Central Minnesota

CITY           SKY/WX    TMP DP  RH WIND       PRES   REMARKS
BAUDETTE       MOSUNNY   76  40  27 E5        30.02F
FLAG ISLAND    SUNNY     63  52  67 S10       30.00F
INTL FALLS     MOSUNNY   76  39  26 CALM      30.02F
6HR MIN TEMP:  50; 6HR MAX TEMP:  77;

WASKISH        PTSUNNY   70  50  49 CALM      30.02F
BIG FORK       CLOUDY    75  45  33 S7        30.04F
LONGVILLE      CLOUDY    68  48  49 CALM      30.03F
GRAND RAPIDS   CLOUDY    68  45  42 SE7       30.05F
CRANE LAKE     MOSUNNY   73  37  27 CALM      30.04F
ORR            PTSUNNY   75  37  25 CALM      30.02F
COOK           PTSUNNY   73  43  33 MISG      30.04F
WALKER         CLOUDY    66  46  49 E5        30.03F
$$
MNZ012-019>021-037-241900-
   Northeast Minnesota

CITY           SKY/WX    TMP DP  RH WIND       PRES   REMARKS
DULUTH         CLOUDY    68  42  38 SE8       30.06F
6HR MIN TEMP:  58; 6HR MAX TEMP:  69; 6HR PCP: TRACE;

ELY            PTSUNNY   75  37  25 S3        30.04F
HIBBING        CLOUDY    72  44  36 S7        30.04F
EVELETH        CLOUDY    72  43  35 S3        30.06F
DULUTH HARBOR  CLOUDY    55  48  76 CALM      30.06F
TWO HARBORS    CLOUDY    73  50  43 S6        30.04F
GRAND MARAIS     N/A     49  40  71 SW9       30.05F
G MARAIS ARPRT MOSUNNY   72  39  30 SE9       30.08F
$$
MNZ029>031-032-039>041-046>048-054>057-064-241900-
   West Central Minnesota

CITY           SKY/WX    TMP DP  RH WIND       PRES   REMARKS
FERGUS FALLS   CLOUDY    66  50  55 E8        29.98F
WHEATON        CLOUDY    63  52  67 E8        29.99S
MORRIS         LGT RAIN  64  55  72 E13       29.97S
ALEXANDRIA     CLOUDY    63  52  67 E13       30.00F
ELBOW LAKE     FAIR      65  51  60 E12G17    29.98S
WADENA         CLOUDY    66  50  55 E10G18    30.00F
GLENWOOD       CLOUDY    63  55  77 E13       30.00F
APPLETON       RAIN      63  57  82 SE8       29.95F
BENSON         DRIZZLE   64  55  72 SE8G16    29.97S
ORTONVILLE     DRIZZLE   64  55  72 E12       29.96F
MADISON        RAIN      63  57  82 E9        29.95S
WILLMAR        LGT RAIN  61  59  94 E14       29.99F
$$
MNZ033>034-036-042>043-049>051-058-059-241900-
   Central Minnesota

CITY           SKY/WX    TMP DP  RH WIND       PRES   REMARKS
ST CLOUD       LGT RAIN  62  56  80 NE6       30.00F
6HR MIN TEMP:  58; 6HR MAX TEMP:  62; 6HR PCP:  0.02;

SAUK CENTRE    DRIZZLE   61  55  81 E7        30.01S
PAYNESVILLE    LGT RAIN  58  56  92 NE8       30.00F
AITKIN         CLOUDY    66  48  52 NE8       30.02F
PINE RIVER     CLOUDY    66  52  59 E7        30.06F
BRAINERD       CLOUDY    66  50  56 E9        30.02F
STAPLES        CLOUDY    66  48  52 NE5       30.01F
LONG PRAIRIE   DRIZZLE   61  52  72 E10       30.02S
LITTLE FALLS   LGT RAIN  61  54  77 E6        30.02F
LITCHFIELD     DRIZZLE   61  61 100 E10       30.00F
BUFFALO        CLOUDY    63  55  77 E8        30.01F
MAPLE LAKE     CLOUDY    63  58  86 E6        30.01F
$$
MNZ037-044-045-052-053-241900-
   East Central Minnesota

CITY           SKY/WX    TMP DP  RH WIND       PRES   REMARKS
PRINCETON      DRIZZLE   66  55  68 SE5       30.01F
MORA           DRIZZLE   63  52  67 NE3       30.04F
CAMBRIDGE      LGT RAIN  70  54  56 E9        30.00F
RUSH CITY      CLOUDY    67  56  67 CALM      30.02F
MOOSE LAKE     CLOUDY    66  48  52 NE5       30.02F
HINCKLEY       DRIZZLE   64  55  72 E3        30.03F
CLOQUET        LGT RAIN  66  43  42 E6        30.05F
MCGREGOR       CLOUDY    64  48  55 E7        30.05F
$$
MNZ071>073-080-081-089-090-097-098-241900-
   Southwest Minnesota

CITY           SKY/WX    TMP DP  RH WIND       PRES   REMARKS
MONTEVIDEO     LGT RAIN  63  59  88 SE14      29.96F
GRANITE FALLS  CLOUDY    60  58  92 E9        29.96F
CANBY          LGT RAIN  61  58  90 E9        29.95S
MARSHALL       CLOUDY    59  54  82 E12       29.93S
REDWOOD FALLS  CLOUDY    60  58  92 E9        29.94F FOG
OLIVIA         LGT RAIN  57  54  88 E8        29.95F
PIPESTONE      CLOUDY    61  57  88 E12       29.91F
WINDOM         LGT RAIN  61  57  88 E14       29.91F
WORTHINGTON    CLOUDY    61  55  82 E17       29.90F
JACKSON        LGT RAIN  59  59 100 E18       29.91S
TRACY          LGT RAIN  60  59  96 E10       29.93F
SLAYTON        LGT RAIN  59  59 100 E5        29.92F
$$
MNZ065>067-074>077-082>085-091>093-241900-
   South Central Minnesota

CITY           SKY/WX    TMP DP  RH WIND       PRES   REMARKS
MANKATO        CLOUDY    61  55  82 E12       29.95F
NEW ULM        LGT RAIN  61  57  88 E13       29.94F
ST JAMES       LGT RAIN  61  59  94 E16       29.93F
FAIRMONT       CLOUDY    59  54  82 E13       29.91F
GLENCOE        DRIZZLE   64  60  88 E12G17    29.97F
FARIBAULT      LGT RAIN  61  57  88 E9        29.98F
OWATONNA       RAIN      61  57  88 E12       29.96F
WASECA         RAIN      59  55  88 E15       29.96F
ALBERT LEA     RAIN      59  59 100 E13G20    29.93F
$$
MNZ078>079-086>088-094>096-241900-
   Southeast Minnesota

CITY           SKY/WX    TMP DP  RH WIND       PRES   REMARKS
ROCHESTER      LGT RAIN  59  57  93 E17       29.98F FOG
6HR MIN TEMP:  58; 6HR MAX TEMP:  62; 6HR PCP:  0.13;

RED WING       LGT RAIN  61  57  88 SE10      30.01F
STANTON        LGT RAIN  61  56  84 E9        29.98F
DODGE CENTER   LGT RAIN  61  57  88 E14       29.98F
WINONA         DRIZZLE   59  55  88 SE9       30.03F
AUSTIN         RAIN      59  55  88 E17G25    29.95F
PRESTON        LGT RAIN  57  55  94 E14       30.00F
$$
ABBREVIATIONS USED IN REMARKS
   TC - TEMPERATURES IN CELSIUS
  WCI - WIND CHILL INDEX
   HX - HEAT INDEX
  VSB - VISIBILITY
$$


USA.gov is the U.S. government's official web portal to all federal, state and local government web resources and services.